Temperature
16 16 16 16 16 16 16 16 16 16 15 15 15 15 15 15 15 15 15 15 15 15 15 15 15 15 15 15 15 15 15 15 15 15 15 15 15 15 15 15 15 15 15
16 16 16 15 15 16 16 16 16 16 15 15 15 15 15 15 15 15 15 15 15 15 15 15 15 15 15 15 15 15 15 15 15 15 15 15 15 15 15 15 15 15 15
16 16 16 15 15 15 15 15 15 15 15 15 15 15 15 15 15 15 15 15 15 15 15 15 15 15 15 15 15 15 15 14 14 14 15 14 14 14 14 14 14 14 14
16 16 15 15 15 15 15 15 15 15 15 15 15 15 15 15 15 15 15 15 15 15 15 15 15 14 15 15 15 15 15 14 14 14 14 14 14 14 14 14 14 14 14
15 15 15 15 15 15 15 15 15 15 15 15 15 15 15 15 15 15 15 14 14 14 14 14 14 14 14 14 14 14 14 14 14 14 14 14 14 14 14 14 14 14 14
15 15 15 15 15 15 15 15 15 15 15 15 15 15 15 15 15 15 15 15 14 14 14 14 14 14 14 14 14 14 14 14 14 14 14 14 14 14 14 14 14 14 14
15 15 15 15 15 15 15 15 15 15 15 15 15 15 15 15 15 15 15 15 14 14 14 14 14 14 14 14 14 14 14 14 14 14 14 14 14 14 13 14 14 13 14
15 15 15 15 15 15 14 14 14 14 14 14 14 15 14 14 14 15 15 15 14 14 14 14 14 14 14 14 14 14 14 13 13 13 13 13 13 13 13 13 13 13 13
15 15 15 14 14 14 14 14 14 14 14 14 14 14 14 14 14 14 14 14 14 14 14 14 14 14 14 13 13 13 13 13 13 13 13 13 13 13 13 13 13 13 13
14 14 14 14 14 14 14 14 14 14 14 14 14 14 14 14 14 14 14 14 14 14 14 14 13 13 13 13 13 13 13 13 13 13 13 13 13 13 13 13 13 13 13
14 14 14 14 14 14 14 14 14 14 14 14 14 14 14 14 14 14 14 14 14 14 14 13 13 13 13 13 13 13 13 13 13 13 13 13 13 13 12 12 12 12 13
14 14 14 14 14 14 14 14 14 14 14 14 14 14 14 14 14 14 14 14 13 13 13 13 13 13 13 13 13 13 13 13 13 13 13 13 12 12 12 12 12 12 12
14 14 14 14 14 14 14 14 14 13 13 13 13 13 13 13 13 13 13 13 13 13 13 13 13 13 13 13 13 13 13 13 13 12 12 12 12 12 12 12 12 12 12
14 14 14 14 14 14 14 14 13 13 13 13 13 13 13 13 13 13 13 13 13 13 13 13 13 13 13 13 13 13 13 12 12 12 12 12 12 12 12 12 12 12 12
14 14 14 14 14 13 13 13 13 13 13 13 13 13 13 13 13 13 13 13 13 12 12 13 13 13 13 12 12 12 12 12 12 12 12 12 12 12 12 12 12 12 12
14 14 14 13 13 13 13 13 13 13 13 13 13 13 13 13 13 13 13 13 13 12 12 12 12 12 12 12 12 12 12 12 12 12 12 12 12 12 12 12 12 12 12
13 13 13 13 13 13 13 13 13 13 13 13 12 12 12 12 12 12 12 12 12 12 12 12 12 12 12 12 12 12 12 12 12 12 12 12 12 11 11 11 11 11 11
13 13 13 13 13 12 12 12 12 12 12 12 12 12 12 12 12 12 12 12 12 12 12 12 12 12 12 12 12 11 11 11 11 11 12 12 12 11 11 11 11 11 11
13 13 12 12 12 12 12 12 12 12 12 12 12 12 12 12 12 12 12 12 12 12 12 11 11 11 11 11 11 11 11 11 11 11 11 11 11 11 11 11 11 11 11
12 12 12 12 12 12 12 12 12 12 12 11 11 11 11 11 11 11 11 11 11 11 11 11 11 11 11 11 11 11 11 11 11 11 11 11 11 11 11 11 11 11 11
12 12 12 11 11 11 11 11 11 11 11 11 11 11 11 11 11 11 11 11 11 11 11 11 11 11 10 10 10 10 10 10 10 10 10 10 11 11 11 11 11 11 11
11 11 11 11 11 11 11 11 11 11 11 11 11 11 11 11 11 11 11 10 10 10 10 10 10 10 10 10 10 10 10 10 10 10 10 10 10 10 11 11 11 11 11
11 11 11 11 11 11 11 11 11 11 10 10 10 10 10 10 10 10 10 10 10 10 10 10 10 10 10 10 10 10 10 10 10 10 10 10 10 10 10 10 10 10 10
11 10 10 10 10 10 10 10 10 10 10 10 10 10 10 10 10 10 10 10 10 10 10 10 10 10 10 10 10 10 10 10 9 9 9 9 10 10 10 10 10 10 10
10 10 10 10 10 10 10 10 10 10 9 9 9 9 9 10 10 10 10 9 9 9 10 9 9 9 9 9 10 9 9 9 9 9 9 9 9 9 9 9 10 10 10
10 9 9 9 9 9 9 9 9 9 9 9 9 9 9 9 9 9 9 9 9 9 9 9 9 9 9 9 9 9 9 9 9 9 9 9 9 9 9 9 9 9 9
Wind_Speed
2 3 3 3 3 3 2 2 3 4 5 6 7 7 7 8 9 10 10 13 13 14 13 13 13 13 13 13 12 12 12 13 13 12 12 11 11 11 11 10 9 9 9
3 3 3 2 2 2 2 3 4 4 4 5 5 6 5 6 8 9 10 10 11 12 12 12 13 13 12 12 12 13 13 13 12 12 12 12 12 12 11 11 10 10 10
4 3 3 2 2 2 4 4 4 4 4 4 4 4 4 4 5 6 8 8 9 10 11 11 12 12 12 11 12 12 12 13 12 13 12 13 12 12 12 11 11 10 10
5 3 2 2 3 3 3 3 2 3 4 3 3 2 3 3 4 4 5 7 7 8 9 10 10 11 11 12 11 11 12 12 12 12 12 12 12 12 12 11 11 11 11
5 4 2 1 4 3 2 2 3 3 3 2 1 2 2 2 2 3 3 4 6 7 8 8 8 8 9 10 10 10 11 11 11 11 11 11 11 11 11 11 10 10 10
4 4 1 2 4 3 2 2 2 2 2 1 1 2 1 1 2 2 2 3 4 6 6 6 6 7 7 8 8 9 9 10 10 9 10 10 10 10 10 10 10 10 10
4 3 2 2 3 2 2 2 2 2 1 1 2 1 1 2 2 2 1 2 2 4 4 4 5 6 6 7 7 7 7 8 8 8 8 9 9 9 9 9 9 10 10
3 2 2 2 2 2 2 2 2 1 1 1 1 1 0 1 2 1 2 1 2 2 2 3 4 5 6 7 6 6 5 6 6 6 6 7 7 7 8 8 8 8 8
2 1 2 2 1 2 1 1 1 1 0 2 1 1 1 0 1 1 1 2 2 1 1 2 4 5 6 7 6 6 5 5 5 5 5 5 6 6 6 6 7 7 7
2 1 1 1 1 1 1 1 1 1 1 1 2 1 0 1 1 0 1 1 1 2 1 2 3 4 6 7 7 7 6 5 5 4 4 4 4 4 4 5 6 6 6
2 2 1 1 1 1 2 1 1 1 1 0 1 1 1 1 1 1 1 1 1 0 1 1 2 3 5 6 7 6 6 5 4 3 3 3 4 4 4 4 5 5 5
1 1 1 1 1 1 2 1 1 1 1 1 1 0 0 0 1 0 1 0 0 1 0 1 2 3 4 6 6 6 6 5 4 4 3 3 2 3 4 4 4 4 5
1 2 2 1 1 1 1 1 1 1 1 1 1 1 1 1 0 0 1 0 0 1 0 1 1 3 3 6 5 6 6 6 4 3 3 3 2 2 2 3 3 4 4
2 2 2 2 1 1 1 1 1 1 1 1 1 1 1 1 1 0 1 1 0 1 0 1 0 2 3 5 6 6 5 5 4 4 4 3 3 3 3 2 3 3 4
1 2 1 2 1 1 1 1 0 0 1 1 1 2 1 1 1 1 1 2 2 1 1 2 0 1 3 5 6 6 4 5 5 5 4 3 3 3 3 3 3 3 3
0 1 2 2 2 2 2 2 1 1 1 1 2 2 2 1 1 1 1 1 2 2 1 1 0 1 2 3 5 4 5 6 5 5 5 4 4 4 4 3 3 3 3
0 1 1 1 2 2 1 1 2 2 2 2 1 1 1 1 1 1 1 1 1 2 1 2 0 1 2 2 2 2 4 5 4 4 5 5 6 5 4 5 4 4 4
1 0 0 0 0 0 0 1 2 2 2 2 2 1 1 1 1 1 1 1 1 1 2 1 1 0 1 2 2 2 3 3 4 5 5 5 7 7 6 6 6 5 5
0 0 1 0 0 0 0 1 2 2 1 2 1 2 2 1 1 1 1 1 1 1 1 2 1 1 1 1 1 1 1 1 2 3 5 5 7 7 7 7 7 7 6
1 0 0 0 0 0 1 1 1 1 1 1 1 2 2 2 2 2 1 1 1 1 1 1 2 1 1 1 1 1 0 1 1 1 2 3 5 7 7 7 7 7 7
1 1 1 0 1 0 1 1 1 2 2 2 2 2 1 1 1 1 1 1 1 2 2 2 2 1 1 1 1 1 1 1 2 1 1 2 3 3 5 7 8 9 9
1 1 1 1 1 1 3 3 2 2 2 1 1 2 2 2 2 2 3 3 2 2 3 2 2 3 3 3 2 2 2 1 2 2 2 2 3 3 4 6 8 10 11
1 0 0 1 2 1 3 3 3 2 2 2 2 1 2 2 2 2 3 4 3 4 4 4 4 4 4 4 3 3 3 2 3 3 2 2 2 3 5 7 10 12 12
0 0 1 0 2 2 2 3 3 2 2 2 2 2 2 2 1 0 1 2 3 4 5 4 4 5 4 4 4 5 5 4 3 2 1 2 3 3 3 5 9 12 12
1 1 0 1 2 1 1 2 3 2 2 2 2 1 1 1 1 1 0 2 3 4 5 6 6 5 5 4 3 2 2 2 2 3 2 2 2 2 2 3 6 10 11
0 0 1 1 1 1 0 1 1 1 2 2 2 1 1 1 1 1 1 2 3 4 3 3 3 4 3 3 3 3 3 3 3 2 2 2 2 1 2 2 3 5 7
Wind_Direction
97 109 103 93 95 96 102 85 72 65 60 51 60 64 70 83 87 86 82 76 73 72 71 71 69 73 73 74 73 73 74 72 72 72 71 72 72 74 75 74 78 80 79
97 98 96 89 96 105 93 86 81 73 72 69 59 63 61 81 95 98 100 87 77 74 72 73 73 73 77 75 74 74 75 74 73 73 73 74 74 74 75 74 74 77 78
106 91 101 96 97 77 76 66 63 76 80 75 66 64 66 60 90 104 109 106 96 84 80 78 76 74 76 78 77 76 77 74 73 73 73 74 73 74 73 73 74 76 77
98 83 81 93 92 72 68 73 55 61 69 69 72 60 71 54 54 74 102 110 112 105 95 88 85 79 77 78 80 80 80 77 74 74 74 74 73 73 72 72 75 77 78
96 92 71 83 83 77 61 59 68 71 78 72 99 89 78 71 52 53 70 94 105 113 115 106 98 91 87 83 80 79 80 81 78 77 75 76 77 75 72 72 74 78 79
80 86 74 76 77 65 50 50 65 63 87 97 76 90 88 105 88 56 57 73 87 101 109 121 123 111 102 92 83 81 82 83 81 79 77 78 79 78 75 73 75 79 79
61 92 85 77 83 83 70 65 72 55 38 47 58 51 39 86 105 98 74 71 82 91 101 110 121 130 118 103 93 86 84 87 86 83 80 78 79 80 78 76 75 78 79
49 73 89 83 85 88 75 62 79 60 1 29 84 82 38 12 359 120 116 102 87 87 83 100 107 110 119 114 104 99 93 92 89 87 88 85 82 81 81 80 80 80 79
83 81 101 107 109 112 126 134 95 92 354 331 17 81 102 219 314 2 138 118 113 83 58 68 86 95 106 112 108 99 95 93 93 86 85 86 86 87 83 81 82 79 78
105 100 122 135 141 127 127 162 137 130 130 308 332 4 20 118 133 291 322 83 125 110 88 73 79 86 95 109 113 105 100 97 95 93 89 89 90 91 90 83 84 80 75
133 128 146 153 161 160 159 164 137 123 128 217 303 329 339 331 264 145 231 295 338 111 126 109 103 93 104 112 114 113 112 108 99 100 100 96 93 89 91 93 90 83 75
158 159 162 161 180 164 159 165 148 135 153 248 286 293 137 340 296 96 167 212 321 294 130 104 101 115 116 118 121 121 127 122 108 97 103 103 97 96 94 89 90 87 77
188 197 169 162 171 168 165 157 139 151 229 239 249 264 274 265 278 150 129 193 323 294 31 77 119 130 133 128 133 138 141 136 124 122 126 125 118 104 100 103 98 92 85
194 201 187 173 158 144 158 143 172 215 223 240 265 269 262 279 277 202 139 131 99 335 357 279 198 146 136 138 147 146 148 149 142 137 136 136 133 128 124 121 125 111 95
187 186 196 167 157 140 145 118 132 234 239 236 247 254 241 254 263 230 152 140 140 187 273 256 229 180 133 131 149 149 149 156 159 154 154 152 152 152 140 126 124 121 110
160 216 220 186 186 191 181 172 175 192 215 242 228 234 239 233 232 202 218 194 150 166 230 260 245 177 139 132 148 156 154 163 168 173 181 181 178 168 160 154 157 145 135
226 237 235 203 211 205 204 191 198 194 212 240 244 227 242 237 198 204 204 185 185 146 181 278 281 122 124 117 114 154 149 154 169 187 195 197 194 188 185 182 183 179 175
210 226 153 117 203 226 261 240 237 221 212 224 234 239 253 210 157 196 187 201 214 193 174 218 259 137 153 168 152 160 159 169 175 200 210 209 199 194 196 195 194 194 194
221 180 111 143 143 97 290 272 243 242 234 236 239 236 230 187 200 206 181 205 225 211 168 166 224 216 190 178 144 168 171 174 207 203 206 202 192 192 198 198 201 205 204
216 178 168 187 167 131 360 352 326 281 256 237 249 245 211 198 199 188 187 206 211 198 200 185 201 206 198 221 152 168 263 272 276 237 192 186 188 198 206 204 207 210 211
234 193 165 80 49 66 336 27 347 321 307 268 236 225 212 143 121 176 187 197 210 206 208 205 205 195 208 190 197 203 216 254 264 256 172 183 170 182 206 215 219 219 218
255 239 195 162 72 17 23 38 23 315 300 302 279 237 216 186 200 195 196 189 187 205 214 212 209 211 220 214 207 209 196 219 266 263 193 226 164 191 204 212 218 217 216
240 234 41 95 104 57 42 31 358 326 301 290 292 299 287 265 205 207 224 220 220 232 224 213 218 226 220 212 200 210 218 219 233 244 203 233 214 217 216 225 220 217 213
54 120 119 93 114 82 52 30 353 313 310 305 309 309 292 293 308 348 262 239 237 235 232 221 226 234 230 219 207 211 219 223 233 246 196 225 230 233 224 222 224 216 215
3 357 35 76 100 83 51 24 3 305 301 299 304 320 310 277 326 22 324 272 273 270 253 233 227 239 252 245 226 194 219 215 242 252 230 216 241 244 242 223 227 221 218
250 305 33 30 102 112 104 72 38 319 305 303 298 290 303 325 3 9 248 252 263 268 289 276 254 253 251 250 238 200 202 216 225 241 238 210 236 225 263 254 213 218 221
Height
1527 1527 1527 1528 1528 1528 1529 1529 1530 1530 1530 1530 1530 1530 1530 1530 1530 1529 1529 1529 1528 1528 1527 1527 1526 1525 1525 1525 1525 1525 1525 1525 1525 1525 1526 1526 1526 1527 1527 1527 1528 1528 1529
1527 1528 1528 1529 1529 1529 1530 1530 1531 1531 1531 1531 1531 1532 1532 1532 1531 1531 1531 1531 1530 1529 1529 1528 1528 1527 1526 1526 1526 1526 1526 1526 1527 1527 1527 1527 1527 1528 1528 1528 1529 1529 1529
1528 1528 1529 1529 1530 1531 1531 1531 1532 1532 1532 1532 1532 1533 1533 1533 1533 1533 1532 1532 1532 1531 1531 1530 1530 1529 1528 1528 1528 1527 1528 1528 1528 1528 1528 1528 1529 1529 1529 1529 1529 1530 1530
1528 1528 1529 1530 1530 1531 1531 1532 1532 1533 1533 1533 1533 1534 1534 1534 1534 1534 1534 1534 1533 1533 1532 1532 1532 1531 1530 1529 1529 1529 1529 1529 1529 1529 1529 1530 1530 1530 1530 1530 1530 1531 1531
1528 1528 1529 1530 1530 1531 1531 1532 1532 1533 1533 1533 1534 1534 1534 1535 1535 1535 1535 1535 1534 1534 1533 1533 1533 1533 1532 1531 1531 1531 1530 1530 1530 1531 1531 1531 1531 1531 1531 1531 1531 1531 1531
1527 1528 1528 1529 1530 1530 1531 1532 1532 1532 1533 1534 1534 1534 1535 1535 1535 1535 1535 1536 1536 1535 1535 1534 1534 1534 1533 1533 1532 1532 1532 1532 1531 1532 1532 1532 1532 1532 1532 1532 1532 1532 1532
1527 1527 1528 1528 1529 1530 1530 1531 1532 1532 1533 1533 1534 1534 1535 1535 1535 1535 1536 1536 1536 1536 1535 1535 1535 1534 1534 1534 1534 1533 1533 1533 1533 1533 1533 1533 1533 1533 1533 1533 1533 1533 1533
1526 1526 1527 1528 1528 1529 1529 1530 1531 1532 1533 1533 1534 1534 1535 1536 1535 1535 1535 1535 1535 1536 1536 1536 1535 1535 1534 1534 1534 1534 1534 1534 1534 1534 1534 1534 1534 1534 1534 1534 1534 1534 1534
1525 1526 1526 1527 1527 1528 1529 1530 1530 1531 1532 1533 1533 1534 1534 1534 1535 1535 1535 1535 1535 1535 1536 1536 1535 1535 1535 1534 1534 1534 1534 1534 1534 1534 1534 1534 1534 1534 1534 1534 1534 1534 1534
1524 1524 1525 1526 1527 1527 1528 1529 1529 1530 1531 1531 1532 1533 1534 1534 1534 1534 1535 1535 1535 1535 1535 1535 1535 1535 1535 1534 1534 1534 1534 1534 1534 1534 1534 1534 1534 1534 1534 1534 1534 1535 1534
1523 1524 1524 1524 1525 1526 1526 1527 1528 1529 1530 1531 1531 1532 1532 1532 1533 1533 1533 1534 1534 1534 1534 1534 1534 1534 1534 1534 1534 1534 1534 1534 1534 1534 1534 1534 1534 1534 1534 1534 1534 1534 1534
1522 1522 1523 1523 1524 1524 1525 1526 1527 1528 1529 1529 1530 1530 1531 1531 1531 1532 1532 1532 1532 1533 1533 1533 1533 1533 1533 1533 1533 1533 1533 1533 1533 1533 1533 1533 1534 1534 1534 1534 1534 1534 1534
1520 1521 1521 1522 1522 1523 1523 1524 1525 1526 1527 1528 1528 1529 1529 1529 1530 1531 1531 1531 1531 1532 1532 1532 1532 1532 1532 1532 1532 1532 1532 1532 1532 1532 1532 1533 1533 1533 1533 1533 1533 1533 1533
1519 1520 1520 1521 1521 1521 1522 1522 1523 1524 1525 1526 1526 1527 1527 1528 1528 1529 1529 1529 1529 1530 1531 1531 1531 1530 1531 1531 1531 1531 1531 1531 1530 1531 1531 1531 1531 1532 1532 1532 1532 1532 1532
1518 1519 1519 1519 1520 1520 1520 1521 1521 1522 1523 1523 1524 1524 1525 1525 1526 1527 1527 1528 1529 1529 1529 1529 1529 1529 1529 1529 1529 1529 1529 1529 1529 1529 1529 1529 1530 1530 1530 1531 1531 1531 1532
1516 1517 1517 1517 1518 1518 1519 1519 1519 1520 1521 1521 1521 1522 1522 1523 1524 1524 1525 1526 1526 1527 1527 1528 1528 1527 1527 1527 1527 1527 1527 1527 1527 1527 1527 1527 1528 1528 1529 1529 1530 1530 1531
1514 1515 1515 1515 1516 1516 1517 1517 1517 1518 1518 1518 1519 1519 1520 1520 1521 1522 1522 1523 1524 1524 1524 1525 1526 1525 1525 1525 1525 1525 1525 1525 1525 1525 1525 1525 1525 1526 1526 1527 1528 1528 1529
1512 1513 1513 1513 1513 1513 1514 1514 1515 1515 1515 1515 1516 1516 1517 1518 1518 1519 1519 1520 1521 1522 1522 1522 1523 1523 1523 1523 1523 1524 1524 1523 1523 1523 1522 1521 1520 1522 1524 1525 1526 1526 1527
1510 1510 1510 1511 1511 1511 1511 1511 1511 1512 1512 1512 1513 1514 1514 1515 1515 1516 1517 1517 1518 1519 1519 1520 1520 1521 1521 1521 1521 1521 1521 1521 1521 1521 1520 1518 1517 1519 1521 1522 1523 1524 1525
1507 1508 1508 1508 1508 1508 1508 1508 1508 1509 1509 1510 1510 1511 1511 1512 1512 1513 1513 1514 1515 1516 1516 1517 1517 1518 1518 1518 1519 1519 1519 1519 1519 1519 1518 1518 1517 1518 1520 1521 1522 1522 1523
1505 1505 1505 1505 1505 1505 1505 1505 1505 1506 1506 1507 1507 1508 1509 1509 1510 1510 1511 1511 1512 1512 1513 1513 1514 1514 1515 1515 1515 1516 1516 1516 1517 1517 1517 1516 1517 1517 1518 1519 1520 1520 1521
1502 1502 1502 1502 1502 1502 1502 1503 1503 1503 1503 1504 1504 1505 1505 1506 1507 1508 1508 1508 1509 1510 1510 1510 1510 1511 1511 1512 1512 1513 1513 1514 1514 1515 1514 1514 1515 1515 1516 1517 1517 1518 1518
1499 1499 1500 1500 1500 1500 1500 1500 1500 1500 1501 1501 1501 1502 1502 1503 1504 1504 1505 1505 1506 1507 1507 1508 1507 1508 1508 1509 1509 1510 1510 1510 1511 1512 1512 1511 1512 1512 1513 1514 1514 1515 1515
1496 1496 1497 1497 1497 1497 1497 1497 1497 1497 1498 1498 1498 1499 1499 1500 1500 1501 1501 1501 1502 1503 1503 1504 1504 1504 1505 1506 1506 1506 1507 1507 1508 1509 1509 1509 1509 1509 1510 1510 1511 1511 1512
1493 1494 1494 1494 1494 1494 1495 1495 1495 1494 1495 1495 1495 1495 1495 1496 1496 1497 1497 1497 1498 1498 1499 1500 1500 1501 1501 1502 1502 1503 1503 1504 1503 1504 1506 1506 1506 1506 1506 1506 1507 1508 1508
1491 1491 1491 1492 1492 1492 1492 1492 1492 1492 1492 1492 1492 1492 1492 1492 1492 1493 1493 1493 1493 1494 1494 1495 1496 1496 1496 1497 1498 1499 1499 1500 1500 1500 1501 1502 1502 1503 1503 1503 1503 1504 1504